Location: Bailey Volunteer Fire Department
(33.4359°N, 96.1680°W)
Time: 17:52:54
(UTC+00:00)

Cosmos-2242 - Pass Details

Date: 13 December 2025
Orbit: 566 x 591 km, 82.5° (Epoch: 13 January)

Event Time Altitude Azimuth Distance (km) Brightness Sun altitude
Exits shadow 12:44:08 - 323° (NW) 2,237 5.4 -7.6°
Reaches altitude 10° 12:45:17 10° 313° (NW) 1,896 5.0 -7.4°
Maximum altitude 12:47:59 17° 272° (W) 1,488 4.5 -6.9°
Drops below altitude 10° 12:50:41 10° 232° (SW) 1,878 5.3 -6.4°
Sets 12:53:28 0° 211° (SSW) 2,765 6.3 -5.9°
